Terminal Aerodrome Forecast
Issued by NWS Columbia, SC

Home | Current Version | Previous Version | Text Only | Print | Product List | Glossary On
Versions: 1 2 3 4 5 6 7 8 9 10 11 12 13 14 15 16 17 18 19 20 21 22 23 24 25 26
325
FTUS42 KCAE 062339
TAFCAE
TAF
KCAE 062339Z 0700/0724 02008KT P6SM VCSH OVC045
      TEMPO 0700/0701 6SM -RA
     FM070600 02009KT P6SM VCSH OVC035
      TEMPO 0707/0711 6SM -RASN OVC030
     FM071400 36010KT P6SM BKN035
     FM071700 34010G18KT P6SM SCT050 BKN250
     FM072300 31006KT P6SM FEW250=

USA.gov is the U.S. government's official web portal to all federal, state and local government web resources and services.